Location: Bothwell
(41.7170°N, 112.2589°W)
Time: 10:14:39
(UTC+00:00)

Transit 2A - Visible Passes

Search period start: 15 May 2026 00:00
Search period end: 25 May 2026 00:00
Orbit: 594 x 950 km, 66.7° (Epoch: 14 May)

Date Brightness Start Highest point End Pass type
(mag) Time Alt. Az. Time Alt. Az. Time Alt. Az.
15 May 7.0 07:22:55 10° NNW 07:27:28 35° NE 07:27:36 35° NE visible
15 May 7.7 09:06:18 10° NW 09:07:53 18° WNW 09:07:53 18° WNW visible
16 May 7.5 06:46:47 10° N 06:50:49 24° NE 06:51:42 23° ENE visible
16 May 7.2 08:29:28 10° NW 08:32:00 27° WNW 08:32:00 27° WNW visible
17 May 8.0 06:10:49 10° N 06:14:05 17° NE 06:15:51 14° ENE visible
17 May 6.7 07:52:53 10° NW 07:56:09 41° NW 07:56:09 41° NW visible
18 May 8.3 05:35:11 10° N 05:37:15 12° NE 05:39:16 10° ENE visible
18 May 6.3 07:16:26 10° NNW 07:20:21 54° N 07:20:21 54° N visible
19 May 6.5 06:40:06 10° NNW 06:44:36 45° NE 06:44:36 45° NE visible
19 May 8.0 08:24:03 10° WNW 08:24:54 13° WNW 08:24:54 13° WNW visible
20 May 7.0 06:03:53 10° NNW 06:08:14 30° NE 06:08:53 29° ENE visible
20 May 7.5 07:47:00 10° NW 07:49:11 22° WNW 07:49:11 22° WNW visible
21 May 7.5 05:27:48 10° N 05:31:33 21° NE 05:33:12 18° ENE visible
21 May 6.8 07:10:16 10° NW 07:13:30 37° WNW 07:13:30 37° WNW visible
22 May 8.0 04:51:56 10° N 04:54:48 15° NE 04:57:31 10° ENE visible
22 May 6.0 06:33:44 10° NNW 06:37:51 63° NW 06:37:51 63° NW visible
23 May 8.2 04:16:39 10° NNE 04:17:56 11° NE 04:19:12 10° NE visible
23 May 5.8 05:57:19 10° NNW 06:02:08 62° ENE 06:02:15 61° ENE visible
23 May 8.2 07:42:11 10° WNW 07:42:33 11° W 07:42:33 11° W visible
24 May 6.5 05:21:02 10° NNW 05:25:35 39° NE 05:26:39 34° E visible
24 May 7.6 07:04:40 10° WNW 07:06:58 20° W 07:06:58 20° W visible
